,,,PA_Meas_PMT16A,,PR_Meas_QMR101_102,,RH_Meas_QMH101,,SR_Meas_QMS101,,TA_Meas_QMH101,,GenWind,,GenWind,
date,time,status,PA,status,PR,status,RH,status,SR,status,TA,status,DirAvg,status,SpdAvg,
2012-07-13, 00:00:04,VALID,1010.46,VALID,0,VALID,104,VALID,0,VALID,23.4992,VALID,124,VALID,0.485156,
2012-07-13, 00:01:04,VALID,1010.45,VALID,0,VALID,104,VALID,0,VALID,23.4992,VALID,83,VALID,0.303516,
2012-07-13, 00:02:04,VALID,1010.46,VALID,0,VALID,104,VALID,0,VALID,23.4992,VALID,83,VALID,0.396094,
2012-07-13, 00:03:04,VALID,1010.46,VALID,0,VALID,104,VALID,0,VALID,23.4992,VALID,104,VALID,0.735937,
2012-07-13, 00:04:04,VALID,1010.45,VALID,0,VALID,104,VALID,0,VALID,23.4992,VALID,115,VALID,0.670703,
2012-07-13, 00:05:04,VALID,1010.46,VALID,0,VALID,104,VALID,0,VALID,23.4797,VALID,116,VALID,0.780859,
2012-07-13, 00:06:04,VALID,1010.43,VALID,0,VALID,104,VALID,0,VALID,23.4992,VALID,116,VALID,0.521484,
2012-07-13, 00:07:04,VALID,1010.42,VALID,0,VALID,104,VALID,0,VALID,23.4992,VALID,116,VALID,0.0886719,
2012-07-13, 00:08:04,VALID,1010.39,VALID,0,VALID,104,VALID,0,VALID,23.4992,VALID,117,VALID,0.474219,
2012-07-13, 00:09:04,VALID,1010.39,VALID,0,VALID,104,VALID,0,VALID,23.4779,VALID,117,VALID,0.277344,
2012-07-13, 00:10:04,VALID,1010.4,VALID,0,VALID,104,VALID,0,VALID,23.4992,VALID,117,VALID,0.514063,
2012-07-13, 00:11:04,VALID,1010.38,VALID,0,VALID,104,VALID,0,VALID,23.4992,VALID,117,VALID,0.216406,
2012-07-13, 00:12:04,VALID,1010.4,VALID,0,VALID,104,VALID,0,VALID,23.4992,VALID,117,VALID,0,
2012-07-13, 00:13:04,VALID,1010.37,VALID,0,VALID,104,VALID,0,VALID,23.4992,VALID,117,VALID,0,
2012-07-13, 00:14:04,VALID,1010.35,VALID,0,VALID,104,VALID,0,VALID,23.4992,VALID,117,VALID,0,
2012-07-13, 00:15:04,VALID,1010.36,VALID,0,VALID,104,VALID,0,VALID,23.4992,VALID,117,VALID,0,
2012-07-13, 00:16:04,VALID,1010.33,VALID,0,VALID,104,VALID,0,VALID,23.4992,VALID,117,VALID,0,
2012-07-13, 00:17:04,VALID,1010.3,VALID,0,VALID,104,VALID,0,VALID,23.4992,VALID,117,VALID,0,
2012-07-13, 00:18:04,VALID,1010.32,VALID,0,VALID,104,VALID,0.112112,VALID,23.4992,VALID,116,VALID,0,
2012-07-13, 00:19:04,VALID,1010.34,VALID,0,VALID,104,VALID,0,VALID,23.4584,VALID,117,VALID,0,
2012-07-13, 00:20:04,VALID,1010.31,VALID,0,VALID,104,VALID,0,VALID,23.4389,VALID,116,VALID,0,
2012-07-13, 00:21:04,VALID,1010.3,VALID,0,VALID,104,VALID,0.112112,VALID,23.4602,VALID,117,VALID,0,
2012-07-13, 00:22:04,VALID,1010.28,VALID,0,VALID,104,VALID,0.112112,VALID,23.4602,VALID,117,VALID,0,
2012-07-13, 00:23:04,VALID,1010.24,VALID,0,VALID,104,VALID,0,VALID,23.4602,VALID,116,VALID,0,
2012-07-13, 00:24:04,VALID,1010.21,VALID,0,VALID,104,VALID,0.112112,VALID,23.4407,VALID,116,VALID,0.0714844,
2012-07-13, 00:25:04,VALID,1010.21,VALID,0,VALID,104,VALID,0.112112,VALID,23.4,VALID,117,VALID,0,
2012-07-13, 00:26:04,VALID,1010.18,VALID,0,VALID,104,VALID,0.112112,VALID,23.4212,VALID,116,VALID,0,
2012-07-13, 00:27:04,VALID,1010.19,VALID,0,VALID,104,VALID,0,VALID,23.3805,VALID,116,VALID,0,
2012-07-13, 00:28:04,VALID,1010.21,VALID,0,VALID,104,VALID,0.112112,VALID,23.3805,VALID,116,VALID,0.241406,
2012-07-13, 00:29:04,VALID,1010.19,VALID,0,VALID,104,VALID,0,VALID,23.3805,VALID,116,VALID,0.309766,
2012-07-13, 00:30:04,VALID,1010.18,VALID,0,VALID,104,VALID,0,VALID,23.3823,VALID,116,VALID,0.372656,
2012-07-13, 00:31:04,VALID,1010.19,VALID,0,VALID,104,VALID,0.112112,VALID,23.3415,VALID,116,VALID,0.489062,
2012-07-13, 00:32:04,VALID,1010.22,VALID,0,VALID,104,VALID,0.112112,VALID,23.322,VALID,116,VALID,0.314063,
2012-07-13, 00:33:04,VALID,1010.2,VALID,0,VALID,104,VALID,0,VALID,23.322,VALID,116,VALID,0.0515625,
2012-07-13, 00:34:04,VALID,1010.2,VALID,0,VALID,104,VALID,0,VALID,23.3026,VALID,116,VALID,0,
2012-07-13, 00:35:04,VALID,1010.16,VALID,0,VALID,104,VALID,0.112112,VALID,23.3238,VALID,116,VALID,0,
2012-07-13, 00:36:04,VALID,1010.15,VALID,0,VALID,104,VALID,0,VALID,23.3043,VALID,116,VALID,0.000390625,
2012-07-13, 00:37:04,VALID,1010.12,VALID,0,VALID,104,VALID,0,VALID,23.2848,VALID,116,VALID,0.152344,
2012-07-13, 00:38:04,VALID,1010.11,VALID,0,VALID,104,VALID,0.112112,VALID,23.3043,VALID,116,VALID,0.0707031,
2012-07-13, 00:39:04,VALID,1010.12,VALID,0,VALID,104,VALID,0,VALID,23.3043,VALID,116,VALID,0,
2012-07-13, 00:40:04,VALID,1010.12,VALID,0,VALID,104,VALID,0,VALID,23.2848,VALID,116,VALID,0,
2012-07-13, 00:41:04,VALID,1010.13,VALID,0,VALID,104,VALID,0.112112,VALID,23.2654,VALID,116,VALID,0,
2012-07-13, 00:42:04,VALID,1010.12,VALID,0,VALID,104,VALID,0,VALID,23.2654,VALID,116,VALID,0,
2012-07-13, 00:43:04,VALID,1010.09,VALID,0,VALID,104,VALID,0,VALID,23.2441,VALID,116,VALID,0,
2012-07-13, 00:44:04,VALID,1010.09,VALID,0,VALID,104,VALID,0,VALID,23.2459,VALID,116,VALID,0,
2012-07-13, 00:45:04,VALID,1010.11,VALID,0,VALID,104,VALID,0,VALID,23.2459,VALID,116,VALID,0,
2012-07-13, 00:46:04,VALID,1010.1,VALID,0,VALID,104,VALID,0,VALID,23.2459,VALID,116,VALID,0.110156,
2012-07-13, 00:47:04,VALID,1010.06,VALID,0,VALID,104,VALID,0,VALID,23.2264,VALID,116,VALID,0.289063,
2012-07-13, 00:48:04,VALID,1010.05,VALID,0,VALID,104,VALID,0,VALID,23.2264,VALID,116,VALID,0.285937,
2012-07-13, 00:49:04,VALID,1010.03,VALID,0,VALID,104,VALID,0,VALID,23.2069,VALID,116,VALID,0.308594,
2012-07-13, 00:50:04,VALID,1009.99,VALID,0,VALID,104,VALID,0,VALID,23.2069,VALID,116,VALID,0.352344,
2012-07-13, 00:51:04,VALID,1009.97,VALID,0,VALID,104,VALID,0,VALID,23.1874,VALID,116,VALID,0.250781,
2012-07-13, 00:52:04,VALID,1009.95,VALID,0,VALID,104,VALID,0,VALID,23.1874,VALID,116,VALID,0.279297,
2012-07-13, 00:53:04,VALID,1009.95,VALID,0,VALID,104,VALID,0,VALID,23.1874,VALID,116,VALID,0.243359,
2012-07-13, 00:54:04,VALID,1009.91,VALID,0,VALID,104,VALID,0,VALID,23.1874,VALID,116,VALID,0,
2012-07-13, 00:55:04,VALID,1009.9,VALID,0,VALID,104,VALID,0,VALID,23.1679,VALID,116,VALID,0,
2012-07-13, 00:56:04,VALID,1009.87,VALID,0,VALID,104,VALID,0,VALID,23.1679,VALID,116,VALID,0,
2012-07-13, 00:57:04,VALID,1009.86,VALID,0,VALID,104,VALID,0,VALID,23.1485,VALID,116,VALID,0,
2012-07-13, 00:58:04,VALID,1009.85,VALID,0,VALID,104,VALID,0,VALID,23.1272,VALID,116,VALID,0,
2012-07-13, 00:59:04,VALID,1009.83,VALID,0,VALID,104,VALID,0,VALID,23.1485,VALID,116,VALID,0,
2012-07-13, 01:00:04,VALID,1009.81,VALID,0,VALID,104,VALID,0,VALID,23.1679,VALID,116,VALID,0,
2012-07-13, 01:01:04,VALID,1009.78,VALID,0,VALID,104,VALID,0,VALID,23.1679,VALID,116,VALID,0,
2012-07-13, 01:02:04,VALID,1009.76,VALID,0,VALID,104,VALID,0,VALID,23.1679,VALID,116,VALID,0,
2012-07-13, 01:03:04,VALID,1009.76,VALID,0,VALID,104,VALID,0,VALID,23.1679,VALID,116,VALID,0,
2012-07-13, 01:04:04,VALID,1009.75,VALID,0,VALID,104,VALID,0,VALID,23.1679,VALID,116,VALID,0,
2012-07-13, 01:05:04,VALID,1009.7,VALID,0,VALID,104,VALID,0,VALID,23.1874,VALID,116,VALID,0,
2012-07-13, 01:06:04,VALID,1009.67,VALID,0,VALID,104,VALID,0,VALID,23.2069,VALID,116,VALID,0,
2012-07-13, 01:07:04,VALID,1009.67,VALID,0,VALID,104,VALID,0,VALID,23.2282,VALID,116,VALID,0,
2012-07-13, 01:08:04,VALID,1009.66,VALID,0,VALID,104,VALID,0,VALID,23.2069,VALID,116,VALID,0,
2012-07-13, 01:09:04,VALID,1009.64,VALID,0,VALID,104,VALID,0,VALID,23.2264,VALID,116,VALID,0,
2012-07-13, 01:10:04,VALID,1009.64,VALID,0,VALID,104,VALID,0,VALID,23.2459,VALID,116,VALID,0,
2012-07-13, 01:11:04,VALID,1009.62,VALID,0,VALID,104,VALID,0,VALID,23.2264,VALID,116,VALID,0,
2012-07-13, 01:12:04,VALID,1009.64,VALID,0,VALID,104,VALID,0,VALID,23.2069,VALID,116,VALID,0,
2012-07-13, 01:13:04,VALID,1009.63,VALID,0,VALID,104,VALID,0,VALID,23.2264,VALID,116,VALID,0,
2012-07-13, 01:14:04,VALID,1009.63,VALID,0,VALID,104,VALID,0,VALID,23.2459,VALID,116,VALID,0,
2012-07-13, 01:15:04,VALID,1009.65,VALID,0,VALID,104,VALID,0,VALID,23.2654,VALID,116,VALID,0.308984,
2012-07-13, 01:16:04,VALID,1009.64,VALID,0,VALID,104,VALID,0,VALID,23.2848,VALID,116,VALID,0.166016,
2012-07-13, 01:17:04,VALID,1009.66,VALID,0,VALID,104,VALID,0,VALID,23.2848,VALID,116,VALID,0.376953,
2012-07-13, 01:18:04,VALID,1009.66,VALID,0,VALID,104,VALID,0,VALID,23.3256,VALID,116,VALID,0.221094,
2012-07-13, 01:19:04,VALID,1009.63,VALID,0,VALID,104,VALID,0,VALID,23.3256,VALID,116,VALID,0.558594,
2012-07-13, 01:20:04,VALID,1009.63,VALID,0,VALID,104,VALID,0,VALID,23.3238,VALID,116,VALID,0.472656,
2012-07-13, 01:21:04,VALID,1009.63,VALID,0,VALID,104,VALID,0,VALID,23.3238,VALID,116,VALID,0.717969,
2012-07-13, 01:22:04,VALID,1009.63,VALID,0,VALID,104,VALID,0,VALID,23.3645,VALID,111,VALID,0.625,
2012-07-13, 01:23:04,VALID,1009.6,VALID,0,VALID,104,VALID,0,VALID,23.3628,VALID,109,VALID,1.26836,
2012-07-13, 01:24:04,VALID,1009.6,VALID,0,VALID,104,VALID,0,VALID,23.4017,VALID,106,VALID,0.963672,
2012-07-13, 01:25:04,VALID,1009.6,VALID,0,VALID,104,VALID,0,VALID,23.4212,VALID,103,VALID,0.984766,
2012-07-13, 01:26:04,VALID,1009.57,VALID,0,VALID,104,VALID,0,VALID,23.4407,VALID,104,VALID,0.347266,
2012-07-13, 01:27:04,VALID,1009.59,VALID,0,VALID,104,VALID,0,VALID,23.4407,VALID,104,VALID,0.193359,
2012-07-13, 01:28:04,VALID,1009.6,VALID,0,VALID,104,VALID,0,VALID,23.4407,VALID,105,VALID,0.627734,
2012-07-13, 01:29:04,VALID,1009.6,VALID,0,VALID,104,VALID,0,VALID,23.4602,VALID,118,VALID,0.200391,
2012-07-13, 01:30:04,VALID,1009.61,VALID,0,VALID,104,VALID,0,VALID,23.4602,VALID,118,VALID,0.23125,
2012-07-13, 01:31:04,VALID,1009.62,VALID,0,VALID,104,VALID,0,VALID,23.4407,VALID,118,VALID,0.419531,
2012-07-13, 01:32:04,VALID,1009.61,VALID,0,VALID,104,VALID,0,VALID,23.4602,VALID,87,VALID,0.590234,
2012-07-13, 01:33:04,VALID,1009.64,VALID,0,VALID,104,VALID,0.112112,VALID,23.4602,VALID,69,VALID,0.534375,
2012-07-13, 01:34:04,VALID,1009.61,VALID,0,VALID,104,VALID,0,VALID,23.4815,VALID,69,VALID,0.624609,
2012-07-13, 01:35:04,VALID,1009.62,VALID,0,VALID,104,VALID,0,VALID,23.4797,VALID,69,VALID,0.491406,
2012-07-13, 01:36:04,VALID,1009.62,VALID,0,VALID,104,VALID,0,VALID,23.4407,VALID,69,VALID,0.430078,
2012-07-13, 01:37:04,VALID,1009.6,VALID,0,VALID,104,VALID,0,VALID,23.4602,VALID,69,VALID,0.507813,
2012-07-13, 01:38:04,VALID,1009.57,VALID,0,VALID,104,VALID,0,VALID,23.4602,VALID,53,VALID,0.515234,
2012-07-13, 01:39:04,VALID,1009.6,VALID,0,VALID,104,VALID,0,VALID,23.4212,VALID,53,VALID,0.434375,
2012-07-13, 01:40:04,VALID,1009.59,VALID,0,VALID,104,VALID,0,VALID,23.4212,VALID,53,VALID,0.241797,
2012-07-13, 01:41:04,VALID,1009.57,VALID,0,VALID,104,VALID,0.112112,VALID,23.3805,VALID,53,VALID,0.60625,
2012-07-13, 01:42:04,VALID,1009.56,VALID,0,VALID,104,VALID,0,VALID,23.4017,VALID,53,VALID,0.397656,
2012-07-13, 01:43:04,VALID,1009.58,VALID,0,VALID,104,VALID,0,VALID,23.3628,VALID,53,VALID,0.453906,
2012-07-13, 01:44:04,VALID,1009.59,VALID,0,VALID,104,VALID,0,VALID,23.3433,VALID,53,VALID,0.00742187,
2012-07-13, 01:45:04,VALID,1009.55,VALID,0,VALID,104,VALID,0,VALID,23.3433,VALID,53,VALID,0.335938,
2012-07-13, 01:46:04,VALID,1009.55,VALID,0,VALID,104,VALID,0,VALID,23.3256,VALID,53,VALID,0.272656,
2012-07-13, 01:47:04,VALID,1009.55,VALID,0,VALID,104,VALID,0,VALID,23.2848,VALID,53,VALID,0.362891,
2012-07-13, 01:48:04,VALID,1009.55,VALID,0,VALID,104,VALID,0.112112,VALID,23.2654,VALID,53,VALID,0.389844,
2012-07-13, 01:49:04,VALID,1009.51,VALID,0,VALID,104,VALID,0.112112,VALID,23.2459,VALID,53,VALID,0.319141,
2012-07-13, 01:50:04,VALID,1009.49,VALID,0,VALID,104,VALID,0,VALID,23.2459,VALID,53,VALID,0.344922,
2012-07-13, 01:51:04,VALID,1009.48,VALID,0,VALID,104,VALID,0,VALID,23.2264,VALID,53,VALID,0.0664063,
2012-07-13, 01:52:04,VALID,1009.45,VALID,0,VALID,104,VALID,0.112112,VALID,23.2069,VALID,53,VALID,0,
2012-07-13, 01:53:04,VALID,1009.44,VALID,0,VALID,104,VALID,0,VALID,23.1874,VALID,53,VALID,0.0078125,
2012-07-13, 01:54:04,VALID,1009.4,VALID,0,VALID,104,VALID,0,VALID,23.1874,VALID,53,VALID,0,
2012-07-13, 01:55:04,VALID,1009.42,VALID,0,VALID,104,VALID,0,VALID,23.1679,VALID,53,VALID,0,
2012-07-13, 01:56:04,VALID,1009.4,VALID,0,VALID,104,VALID,0,VALID,23.1485,VALID,53,VALID,0,
2012-07-13, 01:57:04,VALID,1009.41,VALID,0,VALID,104,VALID,0,VALID,23.1679,VALID,53,VALID,0,
2012-07-13, 01:58:04,VALID,1009.4,VALID,0,VALID,104,VALID,0,VALID,23.1485,VALID,53,VALID,0,
2012-07-13, 01:59:04,VALID,1009.42,VALID,0,VALID,104,VALID,0,VALID,23.129,VALID,53,VALID,0.441797,
2012-07-13, 02:00:04,VALID,1009.41,VALID,0,VALID,104,VALID,0,VALID,23.1095,VALID,53,VALID,0.383984,
2012-07-13, 02:01:04,VALID,1009.4,VALID,0,VALID,104,VALID,0,VALID,23.129,VALID,53,VALID,0.396094,
2012-07-13, 02:02:04,VALID,1009.4,VALID,0,VALID,104,VALID,0,VALID,23.1095,VALID,53,VALID,0.312891,
2012-07-13, 02:03:04,VALID,1009.36,VALID,0,VALID,104,VALID,0,VALID,23.1095,VALID,53,VALID,0.355469,
2012-07-13, 02:04:04,VALID,1009.34,VALID,0,VALID,104,VALID,0,VALID,23.0883,VALID,53,VALID,0.0800781,
2012-07-13, 02:05:04,VALID,1009.34,VALID,0,VALID,104,VALID,0,VALID,23.1095,VALID,53,VALID,0.119922,
2012-07-13, 02:06:04,VALID,1009.31,VALID,0,VALID,104,VALID,0,VALID,23.09,VALID,53,VALID,0.0140625,
2012-07-13, 02:07:04,VALID,1009.28,VALID,0,VALID,104,VALID,0,VALID,23.09,VALID,53,VALID,0,
2012-07-13, 02:08:04,VALID,1009.27,VALID,0,VALID,104,VALID,0,VALID,23.0705,VALID,53,VALID,0.00234375,
2012-07-13, 02:09:04,VALID,1009.27,VALID,0,VALID,104,VALID,0,VALID,23.0493,VALID,53,VALID,0.0648438,
2012-07-13, 02:10:04,VALID,1009.21,VALID,0,VALID,104,VALID,0,VALID,23.0705,VALID,53,VALID,0.0863281,
2012-07-13, 02:11:04,VALID,1009.22,VALID,0,VALID,104,VALID,0,VALID,23.0705,VALID,53,VALID,0.0847656,
2012-07-13, 02:12:04,VALID,1009.16,VALID,0,VALID,104,VALID,0,VALID,23.0705,VALID,53,VALID,0.0957031,
2012-07-13, 02:13:04,VALID,1009.19,VALID,0,VALID,104,VALID,0,VALID,23.0705,VALID,53,VALID,0.274219,
2012-07-13, 02:14:04,VALID,1009.18,VALID,0,VALID,104,VALID,0,VALID,23.0298,VALID,53,VALID,0.0984375,
2012-07-13, 02:15:04,VALID,1009.15,VALID,0,VALID,104,VALID,0,VALID,23.0511,VALID,53,VALID,0.162891,
2012-07-13, 02:16:04,VALID,1009.15,VALID,0,VALID,104,VALID,0,VALID,23.0316,VALID,53,VALID,0.114844,
2012-07-13, 02:17:04,VALID,1009.11,VALID,0,VALID,104,VALID,0,VALID,23.0316,VALID,53,VALID,0,
2012-07-13, 02:18:04,VALID,1009.11,VALID,0,VALID,104,VALID,0,VALID,23.0511,VALID,53,VALID,0,
2012-07-13, 02:19:04,VALID,1009.11,VALID,0,VALID,104,VALID,0,VALID,23.0316,VALID,53,VALID,0,
2012-07-13, 02:20:04,VALID,1009.1,VALID,0,VALID,104,VALID,0,VALID,23.0103,VALID,53,VALID,0,
2012-07-13, 02:21:04,VALID,1009.11,VALID,0,VALID,104,VALID,0,VALID,23.0316,VALID,53,VALID,0,
2012-07-13, 02:22:04,VALID,1009.12,VALID,0,VALID,104,VALID,0,VALID,23.0316,VALID,53,VALID,0,
2012-07-13, 02:23:04,VALID,1009.1,VALID,0,VALID,104,VALID,0,VALID,23.0316,VALID,53,VALID,0,
2012-07-13, 02:24:04,VALID,1009.08,VALID,0,VALID,104,VALID,0,VALID,23.0316,VALID,53,VALID,0,
2012-07-13, 02:25:04,VALID,1009.05,VALID,0,VALID,104,VALID,0,VALID,23.0316,VALID,53,VALID,0,
2012-07-13, 02:26:04,VALID,1009.05,VALID,0,VALID,104,VALID,0,VALID,23.0103,VALID,53,VALID,0,
2012-07-13, 02:27:04,VALID,1009.03,VALID,0,VALID,104,VALID,0,VALID,23.0316,VALID,53,VALID,0,
2012-07-13, 02:28:04,VALID,1009.04,VALID,0,VALID,104,VALID,0,VALID,22.9909,VALID,53,VALID,0,
2012-07-13, 02:29:04,VALID,1008.98,VALID,0,VALID,104,VALID,0,VALID,23.0121,VALID,53,VALID,0,
2012-07-13, 02:30:04,VALID,1008.98,VALID,0,VALID,104,VALID,0,VALID,23.0121,VALID,53,VALID,0,
2012-07-13, 02:31:04,VALID,1008.97,VALID,0,VALID,104,VALID,0,VALID,23.0121,VALID,53,VALID,0,
2012-07-13, 02:32:04,VALID,1008.98,VALID,0,VALID,104,VALID,0,VALID,23.0121,VALID,53,VALID,0,
2012-07-13, 02:33:04,VALID,1008.99,VALID,0,VALID,104,VALID,0,VALID,23.0121,VALID,53,VALID,0,
2012-07-13, 02:34:04,VALID,1008.97,VALID,0,VALID,104,VALID,0,VALID,22.9926,VALID,53,VALID,0,
2012-07-13, 02:35:04,VALID,1008.98,VALID,0,VALID,104,VALID,0,VALID,22.9714,VALID,53,VALID,0,
2012-07-13, 02:36:04,VALID,1008.96,VALID,0,VALID,104,VALID,0,VALID,22.9926,VALID,53,VALID,0,
2012-07-13, 02:37:04,VALID,1008.96,VALID,0,VALID,104,VALID,0,VALID,22.9926,VALID,53,VALID,0.0660156,
2012-07-13, 02:38:04,VALID,1008.95,VALID,0,VALID,104,VALID,0,VALID,22.9731,VALID,53,VALID,0.135547,
2012-07-13, 02:39:04,VALID,1008.97,VALID,0,VALID,104,VALID,0,VALID,22.9536,VALID,53,VALID,0.219922,
2012-07-13, 02:40:04,VALID,1008.96,VALID,0,VALID,104,VALID,0,VALID,22.9536,VALID,53,VALID,0.0871094,
2012-07-13, 02:41:04,VALID,1008.92,VALID,0,VALID,104,VALID,0,VALID,22.9536,VALID,53,VALID,0,
2012-07-13, 02:42:04,VALID,1008.93,VALID,0,VALID,104,VALID,0.112112,VALID,22.9342,VALID,53,VALID,0,
2012-07-13, 02:43:04,VALID,1008.91,VALID,0,VALID,104,VALID,0,VALID,22.9342,VALID,53,VALID,0.149219,
2012-07-13, 02:44:04,VALID,1008.93,VALID,0,VALID,104,VALID,0,VALID,22.9536,VALID,53,VALID,0,
2012-07-13, 02:45:04,VALID,1008.92,VALID,0,VALID,104,VALID,0,VALID,22.9536,VALID,53,VALID,0,
2012-07-13, 02:46:04,VALID,1008.89,VALID,0,VALID,104,VALID,0,VALID,22.9536,VALID,53,VALID,0.0015625,
2012-07-13, 02:47:04,VALID,1008.9,VALID,0,VALID,104,VALID,0,VALID,22.9731,VALID,53,VALID,0,
2012-07-13, 02:48:04,VALID,1008.89,VALID,0,VALID,104,VALID,0,VALID,22.9731,VALID,53,VALID,0.0894531,
2012-07-13, 02:49:04,VALID,1008.91,VALID,0,VALID,104,VALID,0,VALID,22.9536,VALID,53,VALID,0.0808594,
2012-07-13, 02:50:04,VALID,1008.9,VALID,0,VALID,104,VALID,0,VALID,22.9536,VALID,53,VALID,0,
2012-07-13, 02:51:04,VALID,1008.92,VALID,0,VALID,104,VALID,0,VALID,22.9536,VALID,53,VALID,0,
2012-07-13, 02:52:04,VALID,1008.92,VALID,0,VALID,104,VALID,0,VALID,22.9129,VALID,53,VALID,0,
2012-07-13, 02:53:04,VALID,1008.89,VALID,0,VALID,104,VALID,0,VALID,22.9536,VALID,53,VALID,0,
2012-07-13, 02:54:04,VALID,1008.89,VALID,0,VALID,104,VALID,0,VALID,22.9536,VALID,53,VALID,0,
2012-07-13, 02:55:04,VALID,1008.89,VALID,0,VALID,104,VALID,0,VALID,22.9536,VALID,53,VALID,0.0429688,
2012-07-13, 02:56:04,VALID,1008.91,VALID,0,VALID,104,VALID,0.112112,VALID,22.9342,VALID,53,VALID,0,
2012-07-13, 02:57:04,VALID,1008.93,VALID,0,VALID,104,VALID,0.112112,VALID,22.9324,VALID,53,VALID,0,
2012-07-13, 02:58:04,VALID,1008.92,VALID,0,VALID,104,VALID,0,VALID,22.9129,VALID,53,VALID,0,
2012-07-13, 02:59:04,VALID,1008.92,VALID,0,VALID,104,VALID,0,VALID,22.9342,VALID,53,VALID,0,
2012-07-13, 03:00:04,VALID,1008.94,VALID,0,VALID,104,VALID,0,VALID,22.9342,VALID,53,VALID,0,
2012-07-13, 03:01:04,VALID,1008.91,VALID,0,VALID,104,VALID,0,VALID,22.9342,VALID,53,VALID,0,
2012-07-13, 03:02:04,VALID,1008.89,VALID,0,VALID,104,VALID,0.112112,VALID,22.9731,VALID,53,VALID,0,
2012-07-13, 03:03:04,VALID,1008.89,VALID,0,VALID,104,VALID,0,VALID,22.9731,VALID,53,VALID,0.0484375,
2012-07-13, 03:04:04,VALID,1008.87,VALID,0,VALID,104,VALID,0,VALID,22.9731,VALID,53,VALID,0.299219,
2012-07-13, 03:05:04,VALID,1008.85,VALID,0,VALID,104,VALID,0,VALID,22.9926,VALID,53,VALID,0.287891,
2012-07-13, 03:06:04,VALID,1008.88,VALID,0,VALID,104,VALID,0,VALID,22.9926,VALID,53,VALID,0.239453,
2012-07-13, 03:07:04,VALID,1008.86,VALID,0,VALID,104,VALID,0,VALID,22.9926,VALID,53,VALID,0.319141,
2012-07-13, 03:08:04,VALID,1008.85,VALID,0,VALID,104,VALID,0,VALID,22.9749,VALID,53,VALID,0.309766,
2012-07-13, 03:09:04,VALID,1008.88,VALID,0,VALID,104,VALID,0,VALID,22.9342,VALID,53,VALID,0.401563,
2012-07-13, 03:10:04,VALID,1008.87,VALID,0,VALID,104,VALID,0,VALID,22.9342,VALID,53,VALID,0.305469,
2012-07-13, 03:11:04,VALID,1008.89,VALID,0,VALID,104,VALID,0,VALID,22.9147,VALID,53,VALID,0.314063,
2012-07-13, 03:12:04,VALID,1008.86,VALID,0,VALID,104,VALID,0,VALID,22.8757,VALID,53,VALID,0.235938,
2012-07-13, 03:13:04,VALID,1008.88,VALID,0,VALID,104,VALID,0,VALID,22.8757,VALID,53,VALID,0.176172,
2012-07-13, 03:14:04,VALID,1008.85,VALID,0,VALID,104,VALID,0,VALID,22.8562,VALID,53,VALID,0.0410156,
2012-07-13, 03:15:04,VALID,1008.85,VALID,0,VALID,104,VALID,0,VALID,22.8562,VALID,53,VALID,0.166016,
2012-07-13, 03:16:04,VALID,1008.86,VALID,0,VALID,104,VALID,0,VALID,22.8562,VALID,53,VALID,0,
2012-07-13, 03:17:04,VALID,1008.84,VALID,0,VALID,104,VALID,0,VALID,22.8368,VALID,53,VALID,0,
2012-07-13, 03:18:04,VALID,1008.84,VALID,0,VALID,104,VALID,0,VALID,22.8562,VALID,53,VALID,0,
2012-07-13, 03:19:04,VALID,1008.83,VALID,0,VALID,104,VALID,0,VALID,22.8368,VALID,53,VALID,0,
2012-07-13, 03:20:04,VALID,1008.84,VALID,0,VALID,104,VALID,0,VALID,22.8173,VALID,53,VALID,0,
2012-07-13, 03:21:04,VALID,1008.83,VALID,0,VALID,104,VALID,0,VALID,22.7978,VALID,53,VALID,0,
2012-07-13, 03:22:04,VALID,1008.81,VALID,0,VALID,104,VALID,0,VALID,22.7783,VALID,53,VALID,0,
2012-07-13, 03:23:04,VALID,1008.82,VALID,0,VALID,104,VALID,0,VALID,22.7783,VALID,53,VALID,0,
2012-07-13, 03:24:04,VALID,1008.81,VALID,0,VALID,104,VALID,0.112112,VALID,22.7588,VALID,53,VALID,0,
2012-07-13, 03:25:04,VALID,1008.78,VALID,0,VALID,104,VALID,0.112112,VALID,22.7588,VALID,53,VALID,0,
2012-07-13, 03:26:04,VALID,1008.8,VALID,0,VALID,104,VALID,0,VALID,22.7394,VALID,53,VALID,0,
2012-07-13, 03:27:04,VALID,1008.78,VALID,0,VALID,104,VALID,0,VALID,22.7394,VALID,53,VALID,0.223047,
2012-07-13, 03:28:04,VALID,1008.79,VALID,0,VALID,104,VALID,0,VALID,22.7394,VALID,53,VALID,0.267969,
2012-07-13, 03:29:04,VALID,1008.79,VALID,0,VALID,104,VALID,0,VALID,22.7394,VALID,53,VALID,0.0511719,
2012-07-13, 03:30:04,VALID,1008.79,VALID,0,VALID,104,VALID,0,VALID,22.7394,VALID,53,VALID,0,
2012-07-13, 03:31:04,VALID,1008.78,VALID,0,VALID,104,VALID,0,VALID,22.7199,VALID,53,VALID,0,
2012-07-13, 03:32:04,VALID,1008.78,VALID,0,VALID,104,VALID,0,VALID,22.7004,VALID,53,VALID,0,
2012-07-13, 03:33:04,VALID,1008.77,VALID,0,VALID,104,VALID,0,VALID,22.6809,VALID,53,VALID,0,
2012-07-13, 03:34:04,VALID,1008.76,VALID,0,VALID,104,VALID,0,VALID,22.6809,VALID,53,VALID,0,
2012-07-13, 03:35:04,VALID,1008.76,VALID,0,VALID,104,VALID,0.112112,VALID,22.7004,VALID,53,VALID,0,
2012-07-13, 03:36:04,VALID,1008.75,VALID,0,VALID,104,VALID,0,VALID,22.6809,VALID,53,VALID,0,
2012-07-13, 03:37:04,VALID,1008.75,VALID,0,VALID,104,VALID,0,VALID,22.7004,VALID,53,VALID,0,
2012-07-13, 03:38:04,VALID,1008.74,VALID,0,VALID,104,VALID,0,VALID,22.7004,VALID,53,VALID,0,
2012-07-13, 03:39:04,VALID,1008.74,VALID,0,VALID,104,VALID,0,VALID,22.7004,VALID,53,VALID,0,
2012-07-13, 03:40:04,VALID,1008.71,VALID,0,VALID,104,VALID,0,VALID,22.7216,VALID,53,VALID,0,
2012-07-13, 03:41:04,VALID,1008.73,VALID,0,VALID,104,VALID,0,VALID,22.6809,VALID,53,VALID,0.207813,
2012-07-13, 03:42:04,VALID,1008.72,VALID,0,VALID,104,VALID,0,VALID,22.6809,VALID,53,VALID,0.296484,
2012-07-13, 03:43:04,VALID,1008.73,VALID,0,VALID,104,VALID,0,VALID,22.6792,VALID,53,VALID,0.217969,
2012-07-13, 03:44:04,VALID,1008.71,VALID,0,VALID,104,VALID,0,VALID,22.7004,VALID,53,VALID,0.203906,
2012-07-13, 03:45:04,VALID,1008.71,VALID,0,VALID,104,VALID,0,VALID,22.7199,VALID,53,VALID,0.182422,
2012-07-13, 03:46:04,VALID,1008.7,VALID,0,VALID,104,VALID,0.112112,VALID,22.7004,VALID,53,VALID,0,
2012-07-13, 03:47:04,VALID,1008.68,VALID,0,VALID,104,VALID,0,VALID,22.7004,VALID,53,VALID,0.00429688,
2012-07-13, 03:48:04,VALID,1008.69,VALID,0,VALID,104,VALID,0,VALID,22.6809,VALID,53,VALID,0.0972656,
2012-07-13, 03:49:04,VALID,1008.66,VALID,0,VALID,104,VALID,0,VALID,22.7004,VALID,53,VALID,0.0941406,
2012-07-13, 03:50:04,VALID,1008.68,VALID,0,VALID,104,VALID,0,VALID,22.6809,VALID,53,VALID,0,
2012-07-13, 03:51:04,VALID,1008.69,VALID,0,VALID,104,VALID,0,VALID,22.6614,VALID,53,VALID,0,
2012-07-13, 03:52:04,VALID,1008.69,VALID,0,VALID,104,VALID,0,VALID,22.642,VALID,53,VALID,0,
2012-07-13, 03:53:04,VALID,1008.71,VALID,0,VALID,104,VALID,0,VALID,22.6013,VALID,53,VALID,0.0160156,
2012-07-13, 03:54:04,VALID,1008.7,VALID,0,VALID,104,VALID,0,VALID,22.603,VALID,53,VALID,0.3,
2012-07-13, 03:55:04,VALID,1008.71,VALID,0,VALID,104,VALID,0,VALID,22.6225,VALID,53,VALID,0.366016,
2012-07-13, 03:56:04,VALID,1008.7,VALID,0,VALID,104,VALID,0,VALID,22.642,VALID,53,VALID,0.438672,
2012-07-13, 03:57:04,VALID,1008.7,VALID,0,VALID,104,VALID,0,VALID,22.6614,VALID,53,VALID,0.36875,
2012-07-13, 03:58:04,VALID,1008.71,VALID,0,VALID,104,VALID,0,VALID,22.6809,VALID,53,VALID,0.296094,
2012-07-13, 03:59:04,VALID,1008.71,VALID,0,VALID,104,VALID,0,VALID,22.6809,VALID,53,VALID,0.421094,
2012-07-13, 04:00:04,VALID,1008.72,VALID,0,VALID,104,VALID,0,VALID,22.7004,VALID,53,VALID,0.300781,